User: anonymous   Login
Location: Maiden
(35.5760°N, 81.2120°W)
Time: 00:18:18
(UTC-05:00)
Language:

Cosmos 1400 Rocket - Orbit

View from above orbital plane
View from above orbital plane
View from above satellite
View from above satellite

Ground track
Ground track

The orbit data is extracted from the following two-line orbital elements,

1 13403U 82079B   18319.57378916 +.00000966 +00000-0 +62307-4 0  9998
2 13403 081.1722 037.7194 0033869 016.6153 343.6172 15.06920735974268
Epoch (UTC): 15 November 2018 13:46:15
Eccentricity: 0.0033869
inclination: 81.1722°
perigee height: 522 km
apogee height: 569 km
right ascension of ascending node: 37.7194°
argument of perigee: 16.6153°
revolutions per day: 15.06920735
mean anomaly at epoch: 343.6172°
orbit number at epoch: 97426

The dashed part of the orbit path shows where the satellite is in the earth's shadow,  

DLR